Tracking 18843 objects as of 20-November-2017
HD Live streaming from Space Station
objects crossing your sky now

COSMOS 2279

Track COSMOS 2279 now!
10-day predictions
COSMOS 2279 is classified as:


NORAD ID: 23092
Int'l Code: 1994-024A
Perigee: 958.0 km
Apogee: 1,010.0 km
Inclination: 83.0 °
Period: 104.6 minutes
Semi major axis: 7354 km
RCS: 2.3788 m2 (large)
Launch date: April 26, 1994
Source: Commonwealth of Independent States (former USSR) (CIS)
Launch site: PLESETSK MISSILE AND SPACE COMPLEX (PKMTR)
aabbcc
Your satellite tracking list
Your tracking list is empty




NASA's NSSDC Master Catalog

Two Line Element Set (TLE):
1 23092U 94024A   17323.76206155 +.00000047 +00000-0 +32904-4 0  9996
2 23092 082.9511 018.0819 0035343 012.0933 348.1064 13.76357095183270
Source of the keplerian elements: AFSPC